QPF
0.00 0.01 0.01 0.01 0.01 0.01 0.00 0.01 0.00 0.00 0.00 0.00 0.00 0.00 0.00 0.00 0.00 0.00 0.00 0.01 0.01 0.01 0.02 0.02 0.04 0.04 0.03 0.03 0.03 0.02 0.01 0.01 0.01 0.01 0.01 0.01 0.00 0.00 0.00 0.00 0.01 0.01 0.01
0.00 0.00 0.01 0.01 0.01 0.01 0.01 0.01 0.00 0.00 0.00 0.00 0.00 0.00 0.00 0.00 0.00 0.00 0.01 0.01 0.01 0.01 0.02 0.02 0.02 0.02 0.02 0.02 0.01 0.01 0.00 0.00 0.00 0.00 0.00 0.00 0.00 0.01 0.01 0.01 0.01 0.01 0.01
0.00 0.00 0.01 0.01 0.01 0.01 0.00 0.00 0.00 0.00 0.00 0.01 0.00 0.00 0.00 0.00 0.00 0.01 0.01 0.01 0.01 0.01 0.01 0.01 0.01 0.01 0.01 0.00 0.00 0.00 0.00 0.00 0.00 0.00 0.00 0.00 0.01 0.01 0.02 0.02 0.02 0.02 0.02
0.00 0.00 0.01 0.01 0.01 0.01 0.00 0.00 0.00 0.00 0.00 0.01 0.01 0.00 0.00 0.01 0.01 0.01 0.01 0.01 0.00 0.00 0.01 0.00 0.00 0.00 0.00 0.01 0.00 0.00 0.00 0.00 0.00 0.00 0.00 0.01 0.02 0.03 0.04 0.02 0.02 0.02 0.01
0.00 0.00 0.01 0.01 0.01 0.01 0.00 0.00 0.00 0.00 0.00 0.00 0.01 0.01 0.00 0.01 0.01 0.01 0.00 0.00 0.00 0.00 0.00 0.00 0.00 0.00 0.00 0.00 0.00 0.00 0.00 0.00 0.00 0.00 0.01 0.02 0.03 0.05 0.03 0.02 0.01 0.01 0.01
0.00 0.00 0.01 0.01 0.01 0.01 0.00 0.00 0.00 0.00 0.00 0.00 0.00 0.00 0.01 0.01 0.00 0.00 0.00 0.00 0.00 0.00 0.00 0.00 0.00 0.00 0.00 0.00 0.00 0.00 0.00 0.00 0.00 0.00 0.00 0.01 0.02 0.03 0.02 0.01 0.01 0.00 0.00
0.00 0.01 0.01 0.02 0.01 0.01 0.00 0.00 0.00 0.01 0.00 0.00 0.00 0.00 0.01 0.01 0.00 0.00 0.00 0.00 0.00 0.00 0.00 0.00 0.00 0.00 0.00 0.00 0.00 0.00 0.00 0.00 0.00 0.00 0.00 0.01 0.01 0.01 0.01 0.01 0.00 0.00 0.00
0.00 0.01 0.02 0.02 0.01 0.01 0.00 0.00 0.01 0.01 0.00 0.00 0.00 0.01 0.01 0.01 0.00 0.00 0.00 0.00 0.00 0.00 0.00 0.00 0.00 0.00 0.00 0.00 0.00 0.00 0.00 0.00 0.00 0.00 0.00 0.01 0.01 0.01 0.00 0.00 0.00 0.00 0.00
0.01 0.01 0.02 0.02 0.02 0.01 0.01 0.01 0.01 0.00 0.00 0.00 0.00 0.01 0.01 0.00 0.00 0.00 0.00 0.00 0.00 0.00 0.00 0.00 0.00 0.00 0.00 0.00 0.00 0.00 0.00 0.00 0.00 0.00 0.00 0.00 0.00 0.00 0.00 0.00 0.00 0.00 0.00
0.01 0.01 0.02 0.02 0.02 0.01 0.01 0.01 0.00 0.00 0.00 0.00 0.00 0.00 0.00 0.00 0.00 0.00 0.00 0.00 0.00 0.00 0.00 0.00 0.00 0.00 0.00 0.00 0.00 0.00 0.00 0.00 0.00 0.00 0.00 0.00 0.00 0.00 0.00 0.00 0.00 0.00 0.00
0.03 0.02 0.02 0.02 0.02 0.02 0.01 0.01 0.01 0.00 0.00 0.00 0.00 0.00 0.00 0.00 0.00 0.00 0.00 0.00 0.00 0.00 0.00 0.00 0.00 0.00 0.00 0.00 0.00 0.00 0.00 0.00 0.00 0.00 0.00 0.00 0.00 0.00 0.00 0.00 0.00 0.00 0.00
0.02 0.02 0.02 0.02 0.02 0.02 0.01 0.01 0.01 0.01 0.00 0.00 0.00 0.00 0.00 0.00 0.00 0.00 0.00 0.00 0.00 0.00 0.00 0.00 0.00 0.00 0.00 0.00 0.00 0.00 0.00 0.00 0.00 0.00 0.00 0.00 0.00 0.00 0.00 0.00 0.00 0.00 0.00
0.02 0.02 0.02 0.02 0.02 0.02 0.01 0.01 0.01 0.01 0.00 0.00 0.00 0.00 0.00 0.00 0.00 0.00 0.00 0.00 0.00 0.00 0.00 0.00 0.00 0.00 0.00 0.00 0.00 0.00 0.00 0.00 0.00 0.00 0.00 0.00 0.00 0.00 0.00 0.00 0.00 0.00 0.00
0.02 0.02 0.02 0.02 0.02 0.02 0.01 0.01 0.01 0.01 0.00 0.00 0.00 0.00 0.00 0.00 0.00 0.00 0.00 0.00 0.00 0.00 0.00 0.00 0.00 0.00 0.00 0.00 0.00 0.00 0.00 0.00 0.00 0.00 0.00 0.00 0.00 0.00 0.00 0.00 0.00 0.00 0.00
0.02 0.02 0.03 0.03 0.02 0.02 0.01 0.01 0.00 0.01 0.00 0.00 0.00 0.00 0.00 0.00 0.00 0.00 0.00 0.00 0.00 0.00 0.00 0.00 0.00 0.00 0.00 0.00 0.00 0.00 0.00 0.00 0.00 0.00 0.00 0.00 0.00 0.00 0.00 0.00 0.00 0.00 0.00
0.02 0.02 0.04 0.05 0.04 0.02 0.01 0.01 0.00 0.00 0.00 0.00 0.00 0.00 0.00 0.00 0.00 0.00 0.00 0.00 0.00 0.00 0.00 0.00 0.00 0.00 0.00 0.00 0.00 0.00 0.00 0.00 0.00 0.00 0.00 0.00 0.00 0.00 0.00 0.00 0.00 0.01 0.00
0.03 0.04 0.05 0.05 0.06 0.04 0.02 0.01 0.00 0.00 0.00 0.00 0.00 0.00 0.00 0.00 0.00 0.00 0.00 0.00 0.00 0.00 0.00 0.00 0.00 0.00 0.00 0.00 0.00 0.00 0.00 0.00 0.00 0.00 0.00 0.00 0.00 0.00 0.00 0.00 0.00 0.00 0.01
0.05 0.05 0.05 0.06 0.06 0.06 0.05 0.02 0.01 0.01 0.00 0.00 0.00 0.00 0.00 0.00 0.00 0.00 0.00 0.00 0.00 0.00 0.00 0.00 0.00 0.00 0.00 0.00 0.00 0.00 0.00 0.00 0.00 0.00 0.00 0.00 0.00 0.00 0.00 0.00 0.00 0.00 0.01
0.05 0.07 0.08 0.08 0.07 0.09 0.10 0.07 0.05 0.03 0.02 0.01 0.01 0.00 0.00 0.00 0.00 0.00 0.00 0.00 0.00 0.00 0.00 0.00 0.00 0.00 0.00 0.00 0.00 0.00 0.00 0.00 0.00 0.00 0.00 0.00 0.00 0.00 0.00 0.00 0.00 0.01 0.01
0.06 0.07 0.08 0.08 0.09 0.11 0.13 0.12 0.08 0.05 0.04 0.03 0.02 0.02 0.01 0.00 0.00 0.00 0.00 0.00 0.00 0.00 0.00 0.00 0.00 0.00 0.00 0.00 0.00 0.00 0.00 0.00 0.00 0.00 0.00 0.00 0.00 0.00 0.00 0.00 0.00 0.00 0.01
0.05 0.05 0.06 0.06 0.09 0.09 0.09 0.10 0.10 0.08 0.07 0.05 0.04 0.02 0.02 0.01 0.01 0.01 0.01 0.01 0.00 0.00 0.00 0.01 0.00 0.00 0.00 0.00 0.00 0.00 0.00 0.00 0.00 0.00 0.00 0.00 0.00 0.00 0.00 0.00 0.00 0.00 0.00
0.03 0.05 0.06 0.07 0.09 0.08 0.08 0.10 0.12 0.12 0.10 0.09 0.07 0.04 0.03 0.02 0.02 0.02 0.01 0.01 0.00 0.00 0.00 0.00 0.00 0.00 0.00 0.00 0.00 0.00 0.00 0.00 0.00 0.00 0.00 0.00 0.00 0.00 0.00 0.00 0.00 0.00 0.00
0.03 0.04 0.05 0.05 0.06 0.07 0.10 0.11 0.12 0.13 0.13 0.11 0.08 0.05 0.04 0.04 0.03 0.02 0.02 0.01 0.01 0.01 0.00 0.00 0.00 0.00 0.01 0.00 0.00 0.01 0.01 0.01 0.00 0.00 0.00 0.00 0.00 0.00 0.00 0.00 0.00 0.00 0.00
0.01 0.01 0.02 0.03 0.04 0.05 0.06 0.07 0.07 0.08 0.08 0.09 0.10 0.08 0.07 0.05 0.04 0.03 0.03 0.03 0.03 0.02 0.01 0.02 0.02 0.02 0.02 0.01 0.01 0.01 0.01 0.02 0.02 0.01 0.00 0.00 0.00 0.00 0.00 0.00 0.00 0.00 0.01
0.01 0.01 0.01 0.02 0.02 0.02 0.03 0.03 0.04 0.05 0.05 0.07 0.07 0.07 0.07 0.06 0.05 0.05 0.05 0.05 0.04 0.03 0.03 0.03 0.03 0.03 0.03 0.03 0.03 0.03 0.03 0.02 0.02 0.03 0.02 0.01 0.00 0.00 0.00 0.01 0.01 0.01 0.02
0.00 0.01 0.01 0.01 0.01 0.02 0.02 0.03 0.03 0.03 0.03 0.03 0.04 0.05 0.06 0.07 0.06 0.06 0.05 0.05 0.05 0.04 0.03 0.03 0.04 0.04 0.04 0.04 0.04 0.04 0.05 0.04 0.03 0.03 0.04 0.03 0.02 0.02 0.01 0.01 0.02 0.02 0.01
MSLP
1013.35 1013.51 1013.80 1014.21 1014.69 1015.21 1015.71 1016.13 1016.46 1016.70 1016.87 1017.01 1017.16 1017.35 1017.57 1017.80 1018.01 1018.18 1018.28 1018.31 1018.28 1018.24 1018.22 1018.25 1018.34 1018.50 1018.69 1018.89 1019.06 1019.17 1019.24 1019.26 1019.25 1019.25 1019.27 1019.32 1019.39 1019.46 1019.52 1019.54 1019.53 1019.48 1019.42
1013.05 1013.32 1013.73 1014.25 1014.84 1015.42 1015.96 1016.40 1016.73 1016.95 1017.11 1017.24 1017.39 1017.58 1017.82 1018.07 1018.31 1018.50 1018.61 1018.64 1018.62 1018.58 1018.56 1018.60 1018.70 1018.86 1019.06 1019.26 1019.42 1019.53 1019.58 1019.59 1019.58 1019.59 1019.62 1019.69 1019.77 1019.86 1019.92 1019.94 1019.92 1019.86 1019.77
1012.80 1013.17 1013.68 1014.30 1014.97 1015.62 1016.20 1016.65 1016.98 1017.21 1017.36 1017.49 1017.65 1017.85 1018.10 1018.37 1018.61 1018.81 1018.92 1018.96 1018.94 1018.91 1018.90 1018.95 1019.06 1019.23 1019.42 1019.62 1019.77 1019.86 1019.90 1019.91 1019.90 1019.91 1019.96 1020.05 1020.16 1020.26 1020.34 1020.37 1020.35 1020.29 1020.19
1012.62 1013.07 1013.67 1014.37 1015.11 1015.81 1016.41 1016.88 1017.21 1017.44 1017.59 1017.74 1017.91 1018.12 1018.38 1018.66 1018.91 1019.11 1019.23 1019.27 1019.26 1019.24 1019.25 1019.31 1019.43 1019.61 1019.81 1019.99 1020.13 1020.21 1020.24 1020.23 1020.22 1020.24 1020.30 1020.41 1020.54 1020.67 1020.77 1020.82 1020.81 1020.75 1020.65
1012.57 1013.08 1013.73 1014.48 1015.25 1015.97 1016.58 1017.06 1017.40 1017.63 1017.80 1017.96 1018.15 1018.38 1018.66 1018.95 1019.21 1019.41 1019.54 1019.59 1019.60 1019.60 1019.63 1019.71 1019.85 1020.03 1020.22 1020.40 1020.52 1020.58 1020.60 1020.58 1020.56 1020.58 1020.65 1020.77 1020.92 1021.07 1021.19 1021.26 1021.27 1021.22 1021.13
1012.65 1013.19 1013.86 1014.63 1015.40 1016.12 1016.72 1017.19 1017.53 1017.77 1017.96 1018.14 1018.36 1018.62 1018.91 1019.22 1019.49 1019.71 1019.85 1019.93 1019.96 1019.99 1020.04 1020.15 1020.30 1020.49 1020.68 1020.84 1020.95 1020.99 1020.98 1020.95 1020.92 1020.93 1021.00 1021.12 1021.28 1021.45 1021.59 1021.68 1021.70 1021.67 1021.60
1012.86 1013.40 1014.07 1014.81 1015.56 1016.25 1016.83 1017.28 1017.62 1017.87 1018.08 1018.29 1018.53 1018.82 1019.13 1019.46 1019.75 1019.99 1020.15 1020.26 1020.33 1020.40 1020.49 1020.61 1020.78 1020.97 1021.15 1021.30 1021.38 1021.40 1021.37 1021.33 1021.29 1021.29 1021.35 1021.47 1021.63 1021.80 1021.94 1022.05 1022.09 1022.08 1022.02
1013.18 1013.70 1014.33 1015.03 1015.73 1016.36 1016.90 1017.33 1017.67 1017.93 1018.16 1018.40 1018.67 1018.98 1019.32 1019.66 1019.97 1020.24 1020.44 1020.58 1020.69 1020.80 1020.92 1021.07 1021.25 1021.43 1021.60 1021.72 1021.79 1021.79 1021.75 1021.69 1021.65 1021.64 1021.70 1021.81 1021.96 1022.12 1022.27 1022.37 1022.43 1022.43 1022.39
1013.55 1014.04 1014.62 1015.25 1015.88 1016.46 1016.95 1017.36 1017.69 1017.96 1018.21 1018.48 1018.77 1019.11 1019.46 1019.82 1020.15 1020.44 1020.67 1020.85 1021.01 1021.15 1021.30 1021.47 1021.65 1021.82 1021.97 1022.07 1022.11 1022.10 1022.06 1022.00 1021.96 1021.97 1022.02 1022.13 1022.27 1022.43 1022.56 1022.67 1022.72 1022.73 1022.70
1013.93 1014.37 1014.89 1015.45 1016.01 1016.52 1016.98 1017.36 1017.68 1017.97 1018.24 1018.53 1018.85 1019.20 1019.56 1019.93 1020.27 1020.57 1020.84 1021.05 1021.25 1021.42 1021.59 1021.77 1021.93 1022.09 1022.21 1022.29 1022.32 1022.31 1022.27 1022.23 1022.21 1022.24 1022.31 1022.42 1022.56 1022.70 1022.83 1022.93 1022.98 1022.99 1022.97
1014.26 1014.66 1015.12 1015.61 1016.09 1016.55 1016.96 1017.33 1017.65 1017.96 1018.25 1018.56 1018.89 1019.24 1019.60 1019.97 1020.31 1020.63 1020.91 1021.16 1021.38 1021.58 1021.76 1021.93 1022.09 1022.21 1022.31 1022.37 1022.39 1022.38 1022.37 1022.36 1022.38 1022.44 1022.53 1022.66 1022.81 1022.95 1023.07 1023.16 1023.21 1023.23 1023.21
1014.50 1014.86 1015.26 1015.69 1016.11 1016.52 1016.91 1017.26 1017.60 1017.91 1018.23 1018.55 1018.88 1019.23 1019.58 1019.93 1020.28 1020.60 1020.90 1021.17 1021.41 1021.62 1021.81 1021.97 1022.11 1022.21 1022.27 1022.31 1022.33 1022.34 1022.35 1022.39 1022.45 1022.56 1022.69 1022.84 1023.00 1023.14 1023.26 1023.35 1023.40 1023.42 1023.41
1014.61 1014.94 1015.30 1015.67 1016.05 1016.43 1016.80 1017.15 1017.50 1017.84 1018.17 1018.50 1018.83 1019.17 1019.50 1019.84 1020.17 1020.49 1020.80 1021.09 1021.35 1021.57 1021.77 1021.92 1022.03 1022.10 1022.14 1022.17 1022.18 1022.21 1022.25 1022.33 1022.44 1022.59 1022.75 1022.93 1023.10 1023.25 1023.37 1023.46 1023.52 1023.55 1023.56
1014.58 1014.89 1015.22 1015.56 1015.92 1016.27 1016.64 1017.01 1017.37 1017.73 1018.08 1018.41 1018.74 1019.05 1019.37 1019.69 1020.01 1020.32 1020.64 1020.94 1021.22 1021.47 1021.66 1021.81 1021.91 1021.96 1021.97 1021.98 1022.00 1022.03 1022.10 1022.21 1022.35 1022.53 1022.71 1022.90 1023.08 1023.24 1023.36 1023.46 1023.53 1023.58 1023.61
1014.40 1014.72 1015.04 1015.37 1015.72 1016.08 1016.45 1016.84 1017.22 1017.60 1017.96 1018.30 1018.61 1018.91 1019.20 1019.50 1019.81 1020.13 1020.45 1020.77 1021.08 1021.34 1021.55 1021.69 1021.78 1021.82 1021.82 1021.82 1021.82 1021.86 1021.93 1022.05 1022.20 1022.38 1022.57 1022.76 1022.93 1023.08 1023.20 1023.30 1023.39 1023.47 1023.54
1014.11 1014.44 1014.78 1015.13 1015.49 1015.87 1016.26 1016.67 1017.08 1017.48 1017.84 1018.18 1018.48 1018.76 1019.03 1019.31 1019.60 1019.92 1020.26 1020.60 1020.93 1021.21 1021.45 1021.61 1021.70 1021.73 1021.73 1021.71 1021.70 1021.72 1021.78 1021.88 1022.01 1022.17 1022.33 1022.49 1022.63 1022.76 1022.88 1022.98 1023.09 1023.20 1023.32
1013.75 1014.12 1014.49 1014.87 1015.26 1015.68 1016.11 1016.55 1016.98 1017.38 1017.75 1018.08 1018.36 1018.62 1018.86 1019.12 1019.41 1019.73 1020.08 1020.44 1020.79 1021.11 1021.37 1021.55 1021.66 1021.70 1021.69 1021.67 1021.65 1021.64 1021.67 1021.73 1021.81 1021.91 1022.01 1022.12 1022.22 1022.31 1022.41 1022.52 1022.64 1022.78 1022.94
1013.39 1013.80 1014.21 1014.64 1015.08 1015.54 1016.01 1016.48 1016.93 1017.34 1017.70 1018.01 1018.27 1018.50 1018.72 1018.96 1019.23 1019.55 1019.90 1020.28 1020.65 1021.00 1021.28 1021.50 1021.63 1021.69 1021.70 1021.67 1021.63 1021.60 1021.58 1021.58 1021.60 1021.62 1021.65 1021.69 1021.73 1021.79 1021.86 1021.97 1022.10 1022.27 1022.45
1013.06 1013.52 1013.99 1014.48 1014.97 1015.48 1015.98 1016.47 1016.93 1017.33 1017.68 1017.97 1018.20 1018.40 1018.59 1018.81 1019.06 1019.36 1019.71 1020.10 1020.49 1020.85 1021.17 1021.41 1021.57 1021.66 1021.69 1021.67 1021.62 1021.56 1021.49 1021.43 1021.38 1021.32 1021.28 1021.24 1021.23 1021.25 1021.30 1021.40 1021.54 1021.72 1021.93
1012.81 1013.32 1013.84 1014.39 1014.93 1015.48 1016.01 1016.51 1016.97 1017.36 1017.68 1017.94 1018.14 1018.31 1018.47 1018.65 1018.88 1019.16 1019.50 1019.87 1020.26 1020.63 1020.96 1021.24 1021.43 1021.55 1021.61 1021.60 1021.56 1021.48 1021.38 1021.27 1021.14 1021.02 1020.91 1020.82 1020.77 1020.76 1020.80 1020.90 1021.05 1021.23 1021.44
1012.67 1013.21 1013.78 1014.36 1014.95 1015.52 1016.07 1016.57 1017.01 1017.38 1017.67 1017.90 1018.06 1018.20 1018.33 1018.48 1018.68 1018.93 1019.24 1019.58 1019.95 1020.32 1020.65 1020.94 1021.16 1021.32 1021.40 1021.42 1021.39 1021.31 1021.19 1021.05 1020.89 1020.72 1020.57 1020.45 1020.38 1020.37 1020.42 1020.53 1020.69 1020.88 1021.07
1012.62 1013.18 1013.78 1014.39 1014.99 1015.57 1016.11 1016.60 1017.02 1017.36 1017.62 1017.82 1017.96 1018.07 1018.17 1018.30 1018.46 1018.68 1018.94 1019.25 1019.58 1019.92 1020.24 1020.52 1020.76 1020.93 1021.04 1021.09 1021.08 1021.02 1020.90 1020.75 1020.58 1020.41 1020.25 1020.14 1020.09 1020.10 1020.19 1020.33 1020.51 1020.70 1020.88
1012.66 1013.22 1013.82 1014.43 1015.03 1015.60 1016.12 1016.58 1016.97 1017.28 1017.52 1017.69 1017.81 1017.91 1018.00 1018.11 1018.25 1018.42 1018.64 1018.90 1019.18 1019.46 1019.75 1020.01 1020.23 1020.42 1020.55 1020.62 1020.64 1020.60 1020.50 1020.37 1020.22 1020.06 1019.94 1019.87 1019.86 1019.94 1020.08 1020.28 1020.50 1020.71 1020.88
1012.77 1013.31 1013.89 1014.47 1015.05 1015.58 1016.07 1016.50 1016.85 1017.14 1017.37 1017.53 1017.66 1017.76 1017.85 1017.95 1018.07 1018.21 1018.39 1018.58 1018.79 1019.02 1019.24 1019.46 1019.66 1019.83 1019.97 1020.05 1020.09 1020.08 1020.01 1019.91 1019.79 1019.68 1019.61 1019.61 1019.68 1019.84 1020.07 1020.34 1020.62 1020.86 1021.03
1012.91 1013.42 1013.97 1014.51 1015.05 1015.54 1015.99 1016.38 1016.71 1016.98 1017.20 1017.37 1017.52 1017.64 1017.75 1017.86 1017.98 1018.10 1018.22 1018.36 1018.50 1018.65 1018.80 1018.95 1019.10 1019.24 1019.37 1019.45 1019.50 1019.51 1019.47 1019.41 1019.33 1019.28 1019.28 1019.35 1019.51 1019.76 1020.08 1020.44 1020.79 1021.09 1021.29
1013.08 1013.56 1014.06 1014.56 1015.05 1015.50 1015.91 1016.27 1016.58 1016.85 1017.07 1017.27 1017.44 1017.60 1017.74 1017.87 1017.99 1018.10 1018.19 1018.27 1018.34 1018.41 1018.48 1018.56 1018.65 1018.74 1018.83 1018.90 1018.95 1018.97 1018.95 1018.91 1018.88 1018.88 1018.94 1019.08 1019.33 1019.67 1020.08 1020.53 1020.96 1021.32 1021.56
Thickness
5766 5764 5757 5755 5753 5752 5750 5749 5748 5747 5746 5745 5744 5743 5742 5741 5741 5740 5740 5740 5740 5739 5738 5737 5735 5734 5732 5731 5729 5727 5725 5724 5722 5720 5718 5717 5715 5714 5712 5711 5712 5710 5707
5768 5762 5755 5753 5751 5749 5748 5746 5745 5744 5743 5742 5741 5740 5739 5739 5738 5737 5737 5736 5736 5735 5734 5733 5731 5730 5729 5727 5725 5723 5721 5719 5718 5716 5715 5714 5711 5710 5709 5708 5707 5706 5704
5765 5760 5753 5751 5748 5746 5745 5743 5742 5741 5740 5739 5738 5737 5736 5736 5735 5734 5733 5733 5732 5731 5730 5729 5727 5726 5724 5723 5721 5719 5717 5716 5714 5714 5714 5713 5709 5706 5705 5704 5703 5701 5700
5761 5757 5752 5747 5745 5744 5742 5740 5739 5738 5737 5736 5735 5734 5733 5732 5732 5731 5730 5729 5728 5727 5726 5724 5723 5721 5720 5719 5717 5715 5713 5712 5711 5712 5713 5710 5707 5702 5701 5700 5699 5697 5696
5756 5753 5749 5744 5742 5740 5739 5737 5736 5735 5734 5733 5732 5731 5730 5729 5728 5727 5726 5725 5724 5723 5721 5720 5719 5717 5716 5714 5713 5711 5709 5708 5708 5709 5708 5706 5703 5699 5697 5695 5694 5693 5692
5752 5749 5744 5740 5738 5737 5735 5734 5733 5732 5731 5730 5729 5727 5727 5726 5724 5723 5722 5720 5719 5718 5717 5716 5714 5713 5712 5710 5708 5707 5705 5705 5706 5705 5704 5702 5699 5695 5693 5691 5690 5688 5687
5748 5745 5740 5736 5735 5733 5732 5731 5730 5729 5728 5727 5726 5724 5723 5722 5721 5719 5718 5716 5715 5714 5713 5711 5710 5709 5707 5706 5704 5702 5701 5701 5703 5701 5699 5697 5693 5691 5689 5687 5685 5684 5682
5742 5740 5736 5733 5731 5730 5728 5727 5727 5726 5725 5724 5722 5721 5720 5719 5717 5715 5714 5713 5711 5710 5709 5707 5706 5704 5703 5701 5699 5698 5697 5697 5697 5696 5694 5692 5688 5686 5684 5682 5681 5679 5678
5736 5736 5733 5730 5728 5726 5725 5724 5723 5722 5721 5720 5719 5718 5717 5715 5713 5711 5710 5709 5708 5706 5705 5703 5702 5700 5698 5696 5695 5694 5693 5692 5694 5692 5690 5687 5683 5681 5679 5678 5676 5674 5672
5731 5731 5730 5728 5727 5724 5722 5720 5720 5719 5718 5717 5716 5714 5713 5711 5709 5708 5706 5705 5704 5702 5701 5699 5698 5696 5694 5692 5691 5689 5689 5689 5690 5688 5686 5682 5678 5677 5675 5673 5671 5669 5667
5724 5726 5727 5725 5724 5723 5721 5717 5716 5715 5714 5713 5712 5710 5709 5709 5707 5705 5703 5701 5700 5698 5697 5695 5694 5692 5690 5688 5687 5685 5685 5687 5686 5684 5681 5676 5674 5672 5670 5668 5666 5664 5662
5717 5720 5722 5722 5721 5719 5717 5715 5714 5713 5711 5711 5711 5708 5708 5707 5706 5703 5699 5697 5696 5694 5693 5691 5690 5688 5687 5687 5685 5683 5684 5683 5682 5679 5676 5672 5670 5668 5665 5663 5661 5658 5656
5714 5715 5717 5717 5716 5715 5714 5713 5712 5711 5709 5709 5708 5706 5705 5704 5702 5700 5697 5694 5693 5691 5691 5688 5687 5687 5686 5685 5683 5682 5681 5680 5678 5676 5673 5668 5666 5664 5661 5659 5656 5654 5651
5709 5711 5712 5713 5712 5711 5710 5709 5708 5707 5706 5705 5704 5703 5702 5701 5699 5698 5696 5694 5692 5691 5689 5687 5686 5685 5683 5681 5680 5679 5678 5676 5674 5672 5669 5664 5662 5659 5657 5655 5652 5649 5647
5703 5706 5708 5708 5708 5708 5706 5705 5704 5704 5703 5702 5700 5699 5699 5698 5697 5695 5693 5691 5690 5688 5686 5684 5684 5682 5680 5679 5677 5675 5674 5672 5670 5667 5665 5661 5658 5655 5653 5651 5648 5645 5642
5699 5701 5703 5703 5704 5703 5703 5702 5701 5700 5699 5698 5696 5695 5694 5694 5693 5691 5690 5687 5686 5685 5683 5682 5681 5678 5677 5675 5674 5672 5670 5669 5666 5664 5662 5659 5655 5653 5650 5647 5645 5642 5639
5695 5697 5698 5699 5699 5699 5699 5698 5697 5696 5695 5694 5692 5691 5690 5690 5688 5687 5686 5684 5683 5681 5679 5678 5676 5674 5673 5671 5670 5669 5667 5666 5663 5661 5659 5656 5654 5650 5647 5644 5641 5638 5635
5690 5692 5693 5693 5693 5693 5693 5692 5692 5691 5690 5690 5689 5688 5686 5686 5684 5683 5682 5681 5679 5677 5676 5674 5673 5671 5670 5668 5667 5666 5664 5662 5660 5658 5656 5653 5651 5648 5645 5641 5638 5634 5631
5685 5686 5687 5688 5688 5688 5687 5686 5686 5686 5685 5685 5684 5684 5683 5681 5680 5679 5678 5677 5676 5673 5672 5670 5668 5667 5666 5664 5663 5662 5661 5659 5657 5655 5653 5651 5648 5644 5641 5638 5634 5630 5627
5679 5681 5682 5682 5682 5681 5680 5679 5679 5679 5679 5679 5679 5679 5678 5677 5676 5674 5673 5673 5671 5670 5668 5666 5664 5662 5661 5660 5659 5657 5658 5657 5655 5653 5650 5648 5644 5640 5637 5634 5630 5627 5623
5670 5673 5675 5676 5677 5675 5674 5673 5672 5673 5673 5673 5673 5673 5673 5672 5671 5670 5669 5668 5667 5665 5664 5663 5661 5658 5656 5654 5652 5653 5655 5655 5653 5651 5648 5645 5641 5636 5632 5629 5625 5622 5619
5663 5666 5668 5669 5670 5670 5669 5669 5669 5668 5668 5668 5667 5666 5666 5666 5665 5665 5664 5663 5662 5661 5660 5659 5656 5653 5652 5649 5647 5646 5647 5651 5651 5647 5643 5639 5635 5631 5627 5622 5619 5615 5612
5655 5658 5660 5662 5663 5663 5663 5661 5660 5660 5660 5659 5659 5660 5660 5660 5659 5659 5659 5658 5657 5656 5655 5654 5651 5648 5646 5645 5643 5640 5637 5640 5644 5643 5638 5633 5628 5624 5620 5616 5612 5608 5604
5647 5649 5651 5653 5655 5656 5656 5655 5655 5654 5654 5655 5655 5654 5653 5653 5653 5652 5652 5652 5651 5650 5650 5649 5647 5644 5642 5640 5637 5635 5634 5634 5629 5631 5631 5627 5621 5617 5612 5608 5604 5599 5595
5638 5639 5641 5644 5646 5647 5648 5649 5648 5648 5648 5648 5647 5647 5647 5646 5645 5645 5645 5645 5645 5644 5643 5642 5640 5638 5637 5635 5633 5629 5626 5624 5621 5617 5619 5619 5615 5609 5603 5599 5595 5590 5587
5627 5628 5631 5634 5636 5638 5639 5640 5641 5641 5640 5639 5639 5639 5639 5639 5638 5637 5637 5637 5636 5636 5636 5634 5633 5631 5630 5628 5626 5624 5621 5618 5615 5612 5610 5611 5608 5603 5595 5589 5584 5580 5577